Simultaneous Nadir Overpasses (SNOs) Predictions

Prediction of SNOs between TERRA and METOP-C Satellite Orbit:

Table of predicted SNOs for the next 14.0 days since TLE Epoch: 12/28/2024
Index Date (TERRA) Time (TERRA) Lat,Lon (TERRA) SZA (TERRA ) Date (METOP-C) Time (METOP-C) Lat,Lon (METOP-C) SZA (METOP-C ) Distance(km) Time Diff (sec)
1 12/29/2024 01:45:06 48.93, 126.61 76.09 12/29/2024 01:45:05 48.93, 126.58 76.09 1.94 1
2 12/29/2024 02:31:36 -59.11, -60.72 95.60 12/29/2024 02:32:50 -59.08, -60.69 95.70 4.26 74
3 12/31/2024 15:26:00 -45.76, 100.36 106.51 12/31/2024 15:25:37 -45.76, 100.39 106.48 2.38 23
4 12/31/2024 16:12:45 54.75, -88.16 80.72 12/31/2024 16:13:39 54.75, -88.18 80.67 0.99 54
5 01/03/2025 05:06:05 45.02, 75.08 72.81 01/03/2025 05:05:22 45.00, 75.21 72.81 10.38 43
6 01/03/2025 05:53:40 -51.46,-114.74 102.08 01/03/2025 05:54:13 -51.46,-114.74 102.12 0.10 33
7 01/05/2025 18:46:04 -45.02, 50.04 107.34 01/05/2025 18:44:59 -44.98, 50.30 107.37 20.77 65
8 01/05/2025 19:34:38 47.53,-141.36 74.63 01/05/2025 19:34:53 47.53,-141.35 74.61 0.29 15
9 01/05/2025 20:10:44 -79.84, 149.35 67.76 01/05/2025 20:11:57 -79.22, 146.72 68.24 86.52 73
10 01/08/2025 09:15:17 -45.02,-167.31 107.54 01/08/2025 09:15:12 -45.00,-167.25 107.56 5.05 5
11 01/08/2025 10:02:05 53.82, 3.98 79.39 01/08/2025 10:03:17 53.82, 3.99 79.32 0.62 72
12 01/10/2025 22:55:06 45.03, 167.69 72.23 01/10/2025 22:54:43 44.98, 167.86 72.17 14.18 23



Historial Predications of SNOs between TERRA and METOP-C
